Weather History for Paso Robles, CA

Change the Weather History Date:

Saturday, April 14, 2012

  Actual Average Record
Temperature  
Mean Temperature 51 °F 56 °F  
Max Temperature 62 °F 72 °F 92 °F (1964)
Min Temperature 39 °F 41 °F 29 °F (1970)
Degree Days  
Heating Degree Days 14 9  
Month to date heating degree days 174 138  
Since 1 July heating degree days 2606 2597  
Cooling Degree Days 0 0  
Month to date cooling degree days 0 0  
Year to date cooling degree days 0 0  
Moisture  
Dew Point 40 °F    
Average Humidity 67    
Maximum Humidity 86    
Minimum Humidity 47    
Precipitation  
Precipitation T in 0.02 in 0.90 in (1963)
Month to date precipitation 1.72 0.40  
Year to date precipitation 5.67 8.23  
Since 1 July precipitation 8.48 12.22  
Sea Level Pressure  
Sea Level Pressure 29.99 in    
Wind  
Wind Speed 8 mph (NW)    
Max Wind Speed 22 mph    
Max Gust Speed 28 mph    
Visibility 10 miles    
Events Rain    
T = Trace of Precipitation, MM = Missing Value Source: NWS Daily Summary

Daily Weather History Graph

Daily Weather History Graph

Search for Another Location

Airport:

Trip Planner

Search our weather history database for the weather conditions in past years. The results will help you decide how hot, cold, wet, or windy it might be!

Date:

Astronomy

Apr. 14, 2012 Rise Set
Actual Time 6:30 AM PDT 7:35 PM PDT
Civil Twilight 6:04 AM PDT 8:01 PM PDT
Nautical Twilight 5:32 AM PDT 8:33 PM PDT
Astronomical Twilight 5:00 AM PDT 9:05 PM PDT
Moon 2:44 AM PDT (4/14) 1:45 PM PDT (4/14)
Length of Visible Light 13h 57m
Length of Day
13h 05m
Last Quarter, 36% of the Moon is Illuminated
Apr 14
Last Quarter
Apr 21
New
Apr 29
First Quarter
May 5
Full
May 12
Last Quarter

Hourly Weather History & Observations

Time (PDT) Temp. Windchill Dew Point Humidity Pressure Visibility Wind Dir Wind Speed Gust Speed Precip Events Conditions
12:53 AM 43.0 °F - 39.0 °F 86% 29.90 in 10.0 mi Calm Calm - 0.00 in Rain Light Rain
1:03 AM 42.8 °F 39.3 °F 39.2 °F 87% 29.90 in 8.0 mi NNW 5.8 mph - 0.01 in Rain Light Rain
1:53 AM 44.1 °F 42.5 °F 39.9 °F 85% 29.90 in 10.0 mi NW 3.5 mph - 0.01 in Rain Light Rain
2:53 AM 42.1 °F - 37.9 °F 85% 29.90 in 10.0 mi Calm Calm - 0.00 in   Mostly Cloudy
3:53 AM 42.1 °F 38.4 °F 37.9 °F 85% 29.90 in 10.0 mi SSW 5.8 mph - 0.00 in   Overcast
4:53 AM 39.0 °F 35.7 °F 36.0 °F 89% 29.89 in 10.0 mi SW 4.6 mph - 0.00 in   Clear
5:53 AM 39.9 °F 36.7 °F 36.0 °F 86% 29.91 in 10.0 mi SSW 4.6 mph - N/A   Overcast
6:53 AM 41.0 °F - 37.0 °F 86% 29.94 in 10.0 mi Calm Calm - N/A   Overcast
7:53 AM 43.0 °F 40.3 °F 37.9 °F 82% 29.96 in 10.0 mi SW 4.6 mph - N/A   Partly Cloudy
8:53 AM 48.9 °F - 39.0 °F 69% 29.96 in 10.0 mi NW 9.2 mph - N/A   Scattered Clouds
9:53 AM 52.0 °F - 37.9 °F 59% 29.98 in 10.0 mi NW 19.6 mph 26.5 mph N/A   Partly Cloudy
10:53 AM 53.1 °F - 39.0 °F 59% 30.00 in 10.0 mi NW 16.1 mph 23.0 mph N/A   Mostly Cloudy
11:53 AM 53.1 °F - 39.0 °F 59% 30.01 in 10.0 mi WNW 13.8 mph - N/A   Overcast
12:53 PM 55.9 °F - 39.0 °F 53% 30.00 in 10.0 mi NW 16.1 mph 21.9 mph N/A   Mostly Cloudy
1:53 PM 59.0 °F - 39.9 °F 49% 30.00 in 10.0 mi NNW 13.8 mph 20.7 mph N/A   Clear
2:53 PM 59.0 °F - 39.0 °F 48% 30.01 in 10.0 mi NW 9.2 mph - N/A   Overcast
3:53 PM 59.0 °F - 39.9 °F 49% 30.01 in 10.0 mi NNW 11.5 mph - N/A   Overcast
4:53 PM 59.0 °F - 41.0 °F 51% 30.02 in 10.0 mi NNW 6.9 mph - N/A   Overcast
5:53 PM 59.0 °F - 42.1 °F 53% 30.03 in 10.0 mi NNE 8.1 mph - N/A   Overcast
6:53 PM 60.1 °F - 43.0 °F 53% 30.04 in 10.0 mi NNW 9.2 mph - N/A   Overcast
7:53 PM 54.0 °F - 42.1 °F 64% 30.07 in 10.0 mi NNW 9.2 mph - N/A   Clear
8:53 PM 53.1 °F - 42.1 °F 66% 30.10 in 10.0 mi NW 10.4 mph - N/A   Mostly Cloudy
9:53 PM 50.0 °F - 43.0 °F 77% 30.12 in 10.0 mi NW 6.9 mph - N/A   Partly Cloudy
10:53 PM 48.0 °F - 42.1 °F 80% 30.14 in 10.0 mi West 6.9 mph - N/A   Clear
11:53 PM 46.9 °F - 42.1 °F 83% 30.15 in 10.0 mi NW 5.8 mph - N/A   Clear